Weather History for Maun, Botswana

Change the Weather History Date:

Monday, February 10, 2014

  Actual Average Record
Temperature  
Mean Temperature 74 °F -  
Max Temperature 81 °F 88 °F 98 °F (2005)
Min Temperature 67 °F 67 °F 64 °F (2009)
Cooling Degree Days 9    
Growing Degree Days 24 (Base 50)    
Moisture  
Dew Point 67 °F    
Average Humidity 77    
Maximum Humidity 94    
Minimum Humidity 52    
Precipitation  
Precipitation 0.00 in - - ()
Sea Level Pressure  
Sea Level Pressure 29.87 in    
Wind  
Wind Speed 7 mph ()    
Max Wind Speed 18 mph    
Max Gust Speed -    
Visibility 6.2 miles    
Events Rain , Thunderstorm    
Averages and records for this station are not official NWS values.
T = Trace of Precipitation, MM = Missing Value Source: Averaged Metar Reports

Daily Weather History Graph

Daily Weather History Graph

Search for Another Location

Airport:

Trip Planner

Search our weather history database for the weather conditions in past years. The results will help you decide how hot, cold, wet, or windy it might be!

Date:

Astronomy

Feb. 10, 2014 Rise Set
Actual Time 6:15 AM CAT 7:05 PM CAT
Civil Twilight 5:52 AM CAT 7:28 PM CAT
Nautical Twilight 5:25 AM CAT 7:55 PM CAT
Astronomical Twilight 4:57 AM CAT 8:22 PM CAT
Moon 3:48 PM CAT (2/10) 2:23 AM CAT (2/10)
Length of Visible Light 13h 35m
Length of Day
12h 49m
Waxing Gibbous, 82% of the Moon is Illuminated
Feb 10
Waxing Gibbous
Feb 15
Full
Feb 22
Last Quarter
Mar 1
New
Mar 8
First Quarter

Hourly Weather History & Observations

Time (CAT) Temp. Heat Index Dew Point Humidity Pressure Visibility Wind Dir Wind Speed Gust Speed Precip Events Conditions
2:00 AM 71.6 °F - 69.8 °F 94% 29.83 in 6.2 mi East 6.9 mph - N/A   Scattered Clouds
3:00 AM 69.8 °F - 68.0 °F 94% 29.83 in 6.2 mi East 3.5 mph - N/A Rain , Thunderstorm Thunderstorms and Rain
4:00 AM 69.8 °F - 68.0 °F 94% 29.83 in 6.2 mi SSE 4.6 mph - N/A Rain , Thunderstorm Thunderstorms and Rain
5:00 AM 70 °F - 69 °F 94%  in 6 mi SE 3.5 mph - - Rain , Thunderstorm Thunderstorms and Rain
5:00 AM 69.8 °F - 68.0 °F 94% 29.83 in 6.2 mi SE 3.5 mph - N/A Rain , Thunderstorm Light Thunderstorms and Rain
6:00 AM 68.0 °F - 66.2 °F 94% 29.86 in 6.2 mi East 12.7 mph - N/A Rain Light Rain
7:00 AM 68.0 °F - 66.2 °F 94% 29.86 in 6.2 mi ESE 9.2 mph - N/A   Scattered Clouds
8:00 AM 68 °F - 66 °F 93%  in 6 mi East 8.1 mph - -   Partly Cloudy
8:00 AM 68.0 °F - 66.2 °F 94% 29.86 in 6.2 mi East 8.1 mph - N/A   Scattered Clouds
9:00 AM 69.8 °F - 68.0 °F 94% 29.89 in 6.2 mi East 11.5 mph - N/A   Scattered Clouds
10:00 AM 75.2 °F - 69.8 °F 83% 29.89 in 6.2 mi East 12.7 mph - N/A   Scattered Clouds
11:00 AM 77 °F - 69 °F 71%  in 6 mi East 15.0 mph - -   Partly Cloudy
11:00 AM 77.0 °F - 69.8 °F 78% 29.89 in 6.2 mi East 15.0 mph - N/A   Scattered Clouds
12:00 PM 80.6 °F 83.2 °F 68.0 °F 65% 29.86 in 6.2 mi ENE 18.4 mph - N/A   Partly Cloudy
1:00 PM 80.6 °F 82.7 °F 66.2 °F 61% 29.89 in 6.2 mi ENE 15.0 mph - N/A   Partly Cloudy
2:00 PM 80 °F - 66 °F 54%  in 6 mi ENE 10.4 mph - -   Partly Cloudy
2:00 PM 80.6 °F 82.7 °F 66.2 °F 61% 29.86 in 6.2 mi ENE 10.4 mph - N/A   Partly Cloudy
3:00 PM 82.4 °F 84.6 °F 66.2 °F 58% 29.83 in 6.2 mi ENE 13.8 mph - N/A   Partly Cloudy
4:00 PM 80.6 °F 83.9 °F 69.8 °F 70% 29.86 in 6.2 mi East 12.7 mph - N/A   Partly Cloudy
5:00 PM 81 °F - 66 °F 52%  in 6 mi NNE 10.4 mph - -   Partly Cloudy
5:00 PM 80.6 °F 82.7 °F 66.2 °F 61% 29.83 in 6.2 mi NNE 10.4 mph - N/A   Partly Cloudy
6:00 PM 78.8 °F - 64.4 °F 61% 29.83 in 6.2 mi ENE 9.2 mph - N/A   Partly Cloudy
7:00 PM 77.0 °F - 66.2 °F 69% 29.86 in 6.2 mi NE 3.5 mph - N/A   Partly Cloudy
8:00 PM 76 °F - 67 °F 67%  in 6 mi NNE 3.5 mph - -   Partly Cloudy
8:00 PM 77.0 °F - 68.0 °F 74% 29.89 in 6.2 mi NNE 3.5 mph - N/A   Scattered Clouds
9:00 PM 75.2 °F - 68.0 °F 78% 29.89 in 6.2 mi Variable 2.3 mph - N/A   Scattered Clouds
10:00 PM 75.2 °F - 68.0 °F 78% 29.92 in 6.2 mi ENE 4.6 mph - N/A   Scattered Clouds
11:00 PM 73 °F - 69 °F 82%  in 6 mi SSE 5.8 mph - -   Partly Cloudy
11:00 PM 73.4 °F - 68.0 °F 83% 29.95 in 6.2 mi SSE 5.8 mph - N/A   Partly Cloudy